Regional Weather Roundup
Issued by NWS

Home | Current Version | Previous Version | Text Only | Print | Product List | Glossary On
Versions: 1 2 3 4 5 6 7 8 9 10 11 12 13 14 15 16 17 18 19 20 21 22 23 24 25 26 27 28 29 30 31 32 33 34 35 36 37 38 39 40 41 42 43 44 45 46 47 48 49 50
000
ASUS43 KLMK 181810
RWRKY
KENTUCKY REGIONAL WEATHER ROUNDUP
NATIONAL WEATHER SERVICE LOUISVILLE KY
100 PM EST THU DEC 18 2014

NOTE "FAIR" INDICATES FEW OR NO CLOUDS BELOW 12,000 FEET
WITH NO SIGNIFICANT WEATHER AND/OR OBSTRUCTIONS TO VISIBILITY.

KYZ001>023-026-027-061>063-070>075-181900-
WESTERN AND SOUTH CENTRAL KENTUCKY

CITY           SKY/WX    TMP DP  RH WIND       PRES   REMARKS
PADUCAH        CLOUDY    34  31  88 N7        30.26F WCI  28
HENDERSON      CLOUDY    32  25  74 CALM      30.27F
OWENSBORO      PTSUNNY   33  26  76 VRB5      30.27F WCI  28
HOPKINSVILLE   CLOUDY    32  30  93 N5        30.25F WCI  27
BOWLING GREEN  CLOUDY    34  26  72 N6        30.27R WCI  29
GLASGOW        CLOUDY    33  27  79 N6        30.24S WCI  27
$$

KYZ024-025-028>034-038-045-046-053-181900-
NORTH CENTRAL KENTUCKY

CITY           SKY/WX    TMP DP  RH WIND       PRES   REMARKS
LOUISVILLE/SDF CLOUDY    32  23  69 N3        30.26F
LOUISVILLE/LOU CLOUDY    31  23  72 CALM      30.26F
FORT KNOX      CLOUDY    31  23  73 NW2       30.23F
$$

KYZ035>037-039>044-047>052-055>060-089>105-181900-
NORTHEAST KENTUCKY

CITY           SKY/WX    TMP DP  RH WIND       PRES   REMARKS
LEXINGTON      CLOUDY    31  23  72 NE5       30.22F WCI  26
COVINGTON      CLOUDY    28  18  66 W3        30.25F
FRANKFORT      CLOUDY    31  22  69 NW3       30.24S
$$

KYZ054-064>069-076>088-106>120-181900-
SOUTHEAST KENTUCKY

CITY           SKY/WX    TMP DP  RH WIND       PRES   REMARKS
JACKSON        CLOUDY    34  23  64 CALM      30.17F
LONDON         CLOUDY    36  26  67 CALM      30.18F
SOMERSET       CLOUDY    34  27  75 NW5       30.22F WCI  30
MIDDLESBORO    CLOUDY    40  27  60 CALM      30.16F
MONTICELLO     CLOUDY    37  29  73 W3        30.24F
$$




USA.gov is the U.S. government's official web portal to all federal, state and local government web resources and services.